Regional Weather Roundup
Issued by NWS Grand Forks, ND

Home | Current Version | Previous Version | Graphics & Text | Print | Product List | Glossary On
Versions: 1 2 3 4 5 6 7 8 9 10 11 12 13 14 15 16 17 18 19 20 21 22 23 24 25 26 27 28 29 30 31 32 33 34 35 36 37 38 39 40 41 42 43 44 45 46 47 48 49 50
000
ASUS43 KFGF 300531
RWRFGF
PRAIRIE TO PINES  WEATHER ROUNDUP
NATIONAL WEATHER SERVICE EASTERN NORTH DAKOTA/GRAND FORKS ND
1100 PM CST THU JAN 29 2015

 **SATELLITE DATA USED TO AUGMENT SKY COVER AT AUTOMATED STATIONS**
 *****  WEATHER ACROSS EASTERN NORTH DAKOTA  *****

CITY           SKY/WX    TMP DP  RH WIND       PRES   REMARKS
GRAND FORKS    MOCLDY     6  -1  73 CALM      30.58F
GRAND FRKS AFB MOCLDY     5   0  78 SE3       30.56F
GRAND FRKS NWS   N/A      5 N/A N/A E3          N/A
DEVILS LAKE    CLOUDY    12   7  79 SE9       30.45F WCI   0
FARGO          PTCLDY     8   0  69 NE6       30.58F WCI  -2
WAHPETON ARPT  FAIR      10   3  72 NE7       30.59S WCI   0
$$

 ***** WEATHER ACROSS CENTRAL AND WESTERN NORTH DAKOTA  *****

CITY           SKY/WX    TMP DP  RH WIND       PRES   REMARKS
BISMARCK       CLEAR     17  14  88 SE5       30.43F WCI  10
MINOT          CLOUDY    17  13  84 SE10      30.37F WCI   5
JAMESTOWN      CLOUDY    17  11  77 SE3       30.48F
MINOT AFB      CLOUDY    15  15  98 SE9       30.37F WCI   3
GARRISON         N/A     17  15  92 SE7       30.37F WCI   8
WILLISTON      CLEAR     26  19  74 SE3       30.28F
DICKINSON      CLEAR     21  17  84 S10       30.28F WCI  10
HETTINGER      CLEAR     24  15  68 SE7       30.33F WCI  16
$$

 *****  OTHER AIRPORT OBSERVATIONS IN OUR AREA  *****

CITY           SKY/WX    TMP DP  RH WIND       PRES   REMARKS
WALHALLA         N/A      5   1  85 SE7       30.52F WCI  -7
GRAFTON AIRPOR NOT AVBL
VALLEY CITY AR CLOUDY    12  12 100 SE8       30.50F WCI   1
CANDO          CLOUDY    10   7  85 SE9       30.45F WCI  -2
CAVALIER APRT  FAIR       5   0  78 E5        30.54F WCI  -4
GWINNER        CLOUDY    19  12  73 E6        30.54F WCI  11
SHEYENNE NWR     N/A     12   6  78 E3        29.95S
ROLLA          CLOUDY     7   7 100 S12       30.40F WCI  -9
 ***** THE ABOVE OBSERVATIONS ARE NON NWS ARE NOT QUALITY
       CONTROLLED AND MAY MIS-REPORT RAIN FOR SNOW...
$$

  *****  WEATHER ACROSS NORTHERN MINNESOTA  *****

CITY           SKY/WX    TMP DP  RH WIND       PRES   REMARKS
FLAG ISLAND    PTCLDY    -4  -8  84 NW8       30.50S WCI -19
WARROAD        MOCLDY    -6 -11  77 SW3       30.53S
ROSEAU         PTCLDY    -2  -8  78 SW3       30.54S
HALLOCK        MOCLDY     1  -2  85 CALM      30.56F
THF RVR FALLS  MOCLDY     1  -6  71 CALM      30.54F
BAUDETTE       CLOUDY    -3  -8  79 NW6       30.50R WCI -15
WASKISH        MOCLDY    -2  -6  84 CALM      30.52R
CROOKSTON      MOCLDY     3   0  85 CALM      30.59S
STEPHEN NDAWN    N/A      0  -4  85 SW2         N/A
GREENBUSH NDAW   N/A      0  -4  85 SW3         N/A
$$
  *****  WEATHER ACROSS CENTRAL AND WEST MINNESOTA  *****

CITY           SKY/WX    TMP DP  RH WIND       PRES   REMARKS
FOSSTON        MOCLDY    -2  -6  84 CALM      30.54F
BEMIDJI        MOCLDY    -2  -5  86 W6        30.52R WCI -14
PARK RAPIDS    CLOUDY     5   0  79 NW8       30.50R WCI  -8
ELBOW LAKE     FAIR       8   3  82 N3        30.56S
WADENA         PTCLDY     3   0  85 W5        30.54R WCI  -6
DETROIT LAKES  MOCLDY     3   1  92 N5        30.55R WCI  -6
MOORHEAD       PTCLDY     7   3  85 NE5       30.59S WCI  -2
FERGUS FALLS   PTCLDY     7   0  72 N3        30.60S
MORRIS MN      CLEAR     10   7  85 NW6       30.57R WCI   1
STAPLES        CLOUDY     3   1  92 NW7       30.53R WCI  -9
$$
  *****  WEATHER ELSEWHERE ACROSS MINNESOTA  *****

CITY           SKY/WX    TMP DP  RH WIND       PRES   REMARKS
DULUTH         MOCLDY     6  -2  69 NW8       30.44R WCI  -7
INTRNTL FALLS  CLOUDY   -14 -17  87 CALM      30.49R
ELY            CLOUDY     5  -2  72 NW6       30.44R WCI  -6
CLOQUET        CLOUDY     3  -2  78 W6        30.47R WCI  -8
WHEATON        PTCLDY     9   5  85 CALM      30.60F
BRAINERD       PTCLDY     8   2  76 NW7       30.52R WCI  -3
HIBBING        FAIR       2  -5  72 NW8       30.46S WCI -12
ALEXANDRIA     PTCLDY     8   3  80 NW7       30.53R WCI  -3
SAINT CLOUD    CLEAR     11   6  81 NW7       30.53R WCI   0
MINNEAPOLIS    CLEAR     16   5  62 N12       30.53R WCI   3
$$

  *****  WEATHER ACROSS SOUTH DAKOTA  *****

CITY           SKY/WX    TMP DP  RH WIND       PRES   REMARKS
SIOUX FALLS    MOCLDY    23  17  78 NE5       30.53S WCI  17
BROOKINGS      NOT AVBL
WATERTOWN      CLOUDY    19  13  77 CALM      30.50F
HURON          CLEAR     19  16  88 SE3       30.53S
SISSETON         N/A     16  10  77 VRB3      30.56S
ABERDEEN       PTCLDY    19  14  81 E7        30.53F WCI  10
MITCHELL       CLEAR     21  17  84 SE5       30.55R WCI  15
PIERRE         CLEAR     21  18  88 E9        30.45F WCI  11
MOBRIDGE       CLEAR     21  17  84 SE10      30.42F WCI  10
RAPID CITY     PTCLDY    27  12  53 SE7       30.32F WCI  19
$$

  *****  SOME WEATHER IN NEARBY STATES *****

CITY           SKY/WX    TMP DP  RH WIND       PRES   REMARKS
GLASGOW MT     CLEAR     29  24  82 E10       30.19F WCI  20
GREAT FALLS MT CLEAR     34  19  54 SW13      30.21S WCI  25
CHEYENNE WY    MOCLDY    29  19  66 SW9       30.33F WCI  20
SCOTTSBLUFF NE MOCLDY    28  22  78 E9        30.37F WCI  19
OMAHA NE       PTCLDY    28  22  78 N9        30.54S WCI  19
DES MOINES IA  CLEAR     27  19  72 N13       30.51R WCI  16
DAVENPORT IA   CLOUDY    28  17  63 NW20      30.41R WCI  15
CHICAGO IL     FLURRIES  30  22  72 N17G28    30.29R WCI  18
EAU CLAIRE WI  CLEAR     14   3  61 N8        30.47R WCI   3
LA CROSSE WI   CLOUDY    23  10  57 N15       30.45R WCI  10
$$

  *****  SOME NATIONAL WEATHER *****

CITY           SKY/WX    TMP DP  RH WIND       PRES   REMARKS
LA GUARDIA NY  LGT SNOW  31  27  85 SW9       30.00F VSB 1   WCI  23
RALEIGH NC     FAIR      40  24  53 SW9       30.02F
ATLANTA GA     CLOUDY    54  36  50 SW8       30.09F
NEW ORLEANS LA PTCLDY    60  55  83 W6        30.23S
OKLAHOMA CITY  CLOUDY    44  27  51 NE10      30.52R
ALBUQUERQUE NM CLOUDY    42  19  39 E23G32    30.40S
SALT LAKE CITY CLOUDY    39  34  82 CALM      30.27S
LOS ANGELES CA LGT RAIN  64  49  57 W7        30.02F
BOISE ID       CLEAR     34  30  85 SE6       30.32S
SEATTLE WA     CLEAR     45  37  73 N9        30.30F
$$

*** WEATHER ACROSS MANITOBA...SASKATCHEWAN AND ONTARIO ***
                ***ONTARIO***

CITY           SKY/WX    TMP DP  RH WIND       PRES   REMARKS
GERALDTON      CLEAR     -8 -11  84 W5        30.34R WCI -19
THUNDER BAY    CLEAR      1  -6  71 W6        30.47R WCI -10
SIOUX LOOKOUT  CLEAR     -9 -13  84 NW3       30.42S
TORONTO        CLOUDY    30  23  74 NW16G28   29.85R WCI  19
BIG TROUT LK   CLEAR    -15 -20  76 W8        30.30S WCI -32
PICKLE LAKE    NOT AVBL
DRYDEN         CLEAR     -6  -9  84 W6        30.43S WCI -18
KENORA         CLEAR     -8 -11  84 NW8       30.47S WCI -23
$$
                *** MANITOBA***

CITY           SKY/WX    TMP DP  RH WIND       PRES   REMARKS
BRANDON        CLOUDY     7   3  85 S7        30.43F WCI  -5
DAUPHIN        MOCLDY     3   0  85 SE5       30.42F WCI  -6
ISLAND LAKE    CLEAR    -13 -20  70 W8        30.40S WCI -30
PILOT MOUND      N/A      5   1  85 S9          N/A  WCI  -9
THE PAS        CLOUDY    -2  -8  78 S6        30.36F WCI -14
THOMPSON       CLEAR    -15 -20  76 SW3       30.33F
WINNIPEG       CLOUDY     1  -6  71 S5        30.54F WCI  -8
LYNN LAKE      MOCLDY   -20 -24  83 SW3       30.25F
CHURCHILL      CLOUDY   -11 -18  70 W12       30.18F WCI -31
GILLAM         CLEAR    -11 -18  70 W10       30.27F WCI -30
$$
                ***SASKATCHEWAN***

CITY           SKY/WX    TMP DP  RH WIND       PRES   REMARKS
ESTEVAN        MOCLDY    18  14  86 SE8       30.28F WCI   7
KINDERSLEY     PTCLDY    14  12  92 SW3       30.15F
LLOYDMINSTER   MOCLDY    16  12  86 SW9       30.14S WCI   4
PRINCE ALBERT  FLURRIES   9   3  78 S8        30.24F WCI  -4
REGINA         MOCLDY    18  16  93 SE14      30.23F WCI   4
YORKTON        CLOUDY     7   3  85 SE9       30.32F WCI  -7
N. BATTLEFORD  CLEAR     12  10  92 SE7       30.21S WCI   2
LA RONGE       FLURRIES   1   0  92 NE2       30.22F
SASKATOON      MOCLDY    12   9  85 E8        30.22F WCI   1
SWIFT CURRENT  CLEAR     27  25  93 SW13      30.14S WCI  16
$$
NOTE: THESE ARE AUTOMATED STATIONS WITH LIMITED QUALITY CONTROL
      "FAIR" INDICATES FEW OR NO CLOUDS BELOW 12,000 FEET WITH NO
      SIGNIFICANT WEATHER AND/OR OBSTRUCTIONS TO VISIBILITY.
      SKY/WX - SKY CONDITION AND SIGNIFICANT WEATHER.
      TMP - AIR TEMPERATURE.    DP   - DEWPOINT TEMPERATURE.
      RH  - RELATIVE HUMIDITY.  PRES - PRESSURE.
      HX  - HEAT INDEX.         WCI  - WIND CHILL INDEX.
$



USA.gov is the U.S. government's official web portal to all federal, state and local government web resources and services.